This is the latest recevied weather packets stored in our database for station/object WX9WTF. If no packets are shown the sender has not sent any weather packets the latest 10 day(s).
| Time | Temp. | Humidity | Pressure | Rain* | Wind** | Luminosity | Snow |
|---|---|---|---|---|---|---|---|
| 1778198929 | 19.44° C | 50% | 1011.6 hPa | 0 mm | - | 44 W/m² | - |
| 1778198626 | 20° C | 51% | 1011.7 hPa | 0 mm | - | 44 W/m² | - |
| 1778198323 | 20.56° C | 49% | 1011.6 hPa | 0 mm | - | 39 W/m² | - |
| 1778198020 | 20.56° C | 48% | 1011.8 hPa | 0 mm | - | 57 W/m² | - |
| 1778197717 | 20° C | 50% | 1011.8 hPa | 0 mm | - | 58 W/m² | - |
| 1778197414 | 20° C | 47% | 1011.6 hPa | 0 mm | - | 75 W/m² | - |
| 1778197110 | 20° C | 49% | 1011.8 hPa | 0 mm | - | 60 W/m² | - |
| 1778196808 | 20° C | 49% | 1011.7 hPa | 0 mm | - | 73 W/m² | - |
| 1778196506 | 20° C | 48% | 1011.8 hPa | 0 mm | - | 96 W/m² | - |
| 1778196202 | 20° C | 48% | 1011.6 hPa | 0 mm | - | 110 W/m² | - |
| 1778195899 | 20° C | 48% | 1011.6 hPa | 0 mm | - | 124 W/m² | - |
| 1778195596 | 20° C | 48% | 1011.8 hPa | 0 mm | - | 135 W/m² | - |
| 1778195292 | 20.56° C | 48% | 1012.1 hPa | 0 mm | - | 172 W/m² | - |
| 1778194990 | 20° C | 49% | 1012 hPa | 0 mm | - | 232 W/m² | - |
| 1778194689 | 20° C | 48% | 1012 hPa | 0 mm | - | 177 W/m² | - |
| 1778194386 | 20° C | 48% | 1012.1 hPa | 0 mm | - | 218 W/m² | - |
| 1778194082 | 20° C | 48% | 1012.1 hPa | 0 mm | - | 198 W/m² | - |
| 1778193779 | 20.56° C | 51% | 1012.2 hPa | 0 mm | - | 209 W/m² | - |
| 1778193475 | 20° C | 49% | 1012.4 hPa | 0 mm | - | 218 W/m² | - |
| 1778193171 | 20.56° C | 46% | 1012.2 hPa | 0 mm | - | 219 W/m² | - |
| 1778192869 | 20.56° C | 48% | 1012.2 hPa | 0 mm | - | 229 W/m² | - |
| 1778192564 | 20.56° C | 45% | 1012.1 hPa | 0 mm | - | 308 W/m² | - |
| 1778192262 | 21.11° C | 45% | 1012.2 hPa | 0 mm | - | 303 W/m² | - |
| 1778191958 | 20.56° C | 46% | 1012.3 hPa | 0 mm | - | 339 W/m² | - |
| 1778191655 | 21.67° C | 47% | 1012.4 hPa | 0 mm | - | 238 W/m² | - |
* Rain latest hour (hover to see other rain measurements)
** Current wind speed in m/s (hover to see current wind gust speed)